Time,TemperatureF,DewpointF,PressureIn,WindDirection,WindDirectionDegrees,WindSpeedMPH,WindSpeedGustMPH,Humidity,HourlyPrecipIn,Conditions,Clouds,dailyrainin,SolarRadiationWatts/m^2,SoftwareType,DateUTC
2013-06-15 00:02:00,62.0,62.0,30.04,NE,37,0.0,0.0,100,0.00,,,0.00,0.000000,,2013-06-15 05:02:00,
2013-06-15 00:12:00,61.0,61.0,30.04,NE,37,0.0,0.0,100,0.00,,,0.00,0.000000,,2013-06-15 05:12:00,
2013-06-15 00:22:00,62.0,62.0,30.05,NE,37,0.0,0.0,100,0.00,,,0.00,0.000000,,2013-06-15 05:22:00,
2013-06-15 00:34:00,62.0,62.0,30.06,NE,37,0.0,0.0,100,0.00,,,0.00,0.000000,,2013-06-15 05:34:00,
2013-06-15 00:43:00,62.0,62.0,30.04,NE,37,0.0,1.0,100,0.00,,,0.00,0.000000,,2013-06-15 05:43:00,
2013-06-15 00:52:00,62.0,62.0,30.04,NE,37,0.0,0.0,100,0.00,,,0.00,0.000000,,2013-06-15 05:52:00,
2013-06-15 01:02:00,61.0,61.0,30.05,NE,37,0.0,0.0,100,0.00,,,0.00,0.000000,,2013-06-15 06:02:00,
2013-06-15 01:12:00,61.0,61.0,30.05,NE,37,0.0,0.0,100,0.00,,,0.00,0.000000,,2013-06-15 06:12:00,
2013-06-15 01:24:00,61.0,61.0,30.06,NE,37,0.0,0.0,100,0.00,,,0.00,0.000000,,2013-06-15 06:24:00,
2013-06-15 01:33:00,61.0,61.0,30.06,NE,37,0.0,0.0,100,0.00,,,0.00,0.000000,,2013-06-15 06:33:00,
2013-06-15 01:43:00,61.0,61.0,30.06,NE,37,0.0,0.0,100,0.00,,,0.00,0.000000,,2013-06-15 06:43:00,
2013-06-15 01:53:00,61.0,61.0,30.06,NE,37,0.0,0.0,100,0.00,,,0.00,0.000000,,2013-06-15 06:53:00,
2013-06-15 02:01:00,61.0,61.0,30.06,NE,37,0.0,0.0,100,0.00,,,0.00,0.000000,,2013-06-15 07:01:00,
2013-06-15 02:11:00,60.0,60.0,30.06,NE,37,0.0,0.0,100,0.00,,,0.00,0.000000,,2013-06-15 07:11:00,
2013-06-15 02:23:00,60.0,60.0,30.06,NE,37,0.0,0.0,100,0.00,,,0.00,0.000000,,2013-06-15 07:23:00,
2013-06-15 02:33:00,60.0,60.0,30.06,NE,37,0.0,0.0,100,0.00,,,0.00,0.000000,,2013-06-15 07:33:00,
2013-06-15 02:43:00,60.0,60.0,30.06,NE,37,0.0,0.0,100,0.00,,,0.00,0.000000,,2013-06-15 07:43:00,
2013-06-15 02:53:00,60.0,60.0,30.06,NE,37,0.0,0.0,100,0.00,,,0.00,0.000000,,2013-06-15 07:53:00,
2013-06-15 03:02:00,60.0,60.0,30.06,NE,37,0.0,0.0,100,0.00,,,0.00,0.000000,,2013-06-15 08:02:00,
2013-06-15 03:11:00,61.0,61.0,30.06,NE,37,0.0,0.0,100,0.00,,,0.00,0.000000,,2013-06-15 08:11:00,
2013-06-15 03:22:00,61.0,61.0,30.07,NE,37,0.0,0.0,100,0.00,,,0.00,0.000000,,2013-06-15 08:22:00,
2013-06-15 03:33:00,61.0,61.0,30.06,NE,37,0.0,0.0,100,0.00,,,0.00,0.000000,,2013-06-15 08:33:00,
2013-06-15 03:42:00,61.0,61.0,30.06,NE,37,0.0,0.0,100,0.00,,,0.00,0.000000,,2013-06-15 08:42:00,
2013-06-15 03:53:00,61.0,61.0,30.06,NE,37,0.0,0.0,100,0.00,,,0.00,0.000000,,2013-06-15 08:53:00,
2013-06-15 04:02:00,61.0,61.0,30.06,NE,37,0.0,0.0,100,0.00,,,0.00,0.000000,,2013-06-15 09:02:00,
2013-06-15 04:12:00,62.0,62.0,30.06,NE,37,0.0,0.0,100,0.00,,,0.00,0.000000,,2013-06-15 09:12:00,
2013-06-15 04:22:00,62.0,62.0,30.05,NE,37,0.0,0.0,100,0.00,,,0.00,0.000000,,2013-06-15 09:22:00,
2013-06-15 04:33:00,61.0,61.0,30.05,NE,37,0.0,0.0,100,0.00,,,0.00,0.000000,,2013-06-15 09:33:00,
2013-06-15 04:43:00,61.0,61.0,30.05,NE,37,0.0,0.0,100,0.00,,,0.00,0.000000,,2013-06-15 09:43:00,
2013-06-15 04:52:00,61.0,61.0,30.05,NE,37,0.0,0.0,100,0.00,,,0.00,0.000000,,2013-06-15 09:52:00,
2013-06-15 05:02:00,61.0,61.0,30.05,NE,37,0.0,0.0,100,0.00,,,0.00,0.000000,,2013-06-15 10:02:00,
2013-06-15 05:11:00,61.0,61.0,30.05,NE,37,0.0,0.0,100,0.00,,,0.00,0.000000,,2013-06-15 10:11:00,
2013-06-15 05:23:00,61.0,61.0,30.05,NE,37,0.0,0.0,100,0.00,,,0.00,0.000000,,2013-06-15 10:23:00,
2013-06-15 05:33:00,60.0,60.0,30.06,NE,37,0.0,0.0,100,0.00,,,0.00,0.000000,,2013-06-15 10:33:00,
2013-06-15 05:44:00,60.0,60.0,30.06,NE,37,0.0,0.0,100,0.00,,,0.00,0.000000,,2013-06-15 10:44:00,
2013-06-15 05:53:00,60.0,60.0,30.06,NE,37,0.0,0.0,100,0.00,,,0.00,0.000000,,2013-06-15 10:53:00,
2013-06-15 06:02:00,60.0,60.0,30.07,NE,37,0.0,0.0,100,0.00,,,0.00,0.000000,,2013-06-15 11:02:00,
2013-06-15 06:11:00,60.0,60.0,30.08,NE,37,0.0,0.0,100,0.00,,,0.00,9.000000,,2013-06-15 11:11:00,
2013-06-15 06:22:00,60.0,60.0,30.08,NE,37,0.0,0.0,100,0.00,,,0.00,14.000000,,2013-06-15 11:22:00,
2013-06-15 06:33:00,60.0,60.0,30.08,NE,37,0.0,0.0,100,0.00,,,0.00,23.000000,,2013-06-15 11:33:00,
2013-06-15 06:43:00,60.0,60.0,30.09,NE,37,0.0,0.0,100,0.00,,,0.00,32.000000,,2013-06-15 11:43:00,
2013-06-15 06:53:00,60.0,60.0,30.09,NE,37,0.0,0.0,100,0.00,,,0.00,39.000000,,2013-06-15 11:53:00,
2013-06-15 07:01:00,61.0,61.0,30.09,NE,37,0.0,0.0,100,0.00,,,0.00,42.000000,,2013-06-15 12:01:00,
2013-06-15 07:12:00,61.0,61.0,30.09,ENE,76,0.0,0.0,100,0.00,,,0.00,49.000000,,2013-06-15 12:12:00,
2013-06-15 07:22:00,62.0,62.0,30.08,West,280,0.0,0.0,100,0.00,,,0.00,60.000000,,2013-06-15 12:22:00,
2013-06-15 07:33:00,63.0,63.0,30.09,West,280,0.0,0.0,100,0.00,,,0.00,63.000000,,2013-06-15 12:33:00,
2013-06-15 07:43:00,63.0,63.0,30.09,West,280,0.0,0.0,100,0.00,,,0.00,167.000000,,2013-06-15 12:43:00,
2013-06-15 07:52:00,66.0,66.0,30.09,West,280,0.0,0.0,100,0.00,,,0.00,160.000000,,2013-06-15 12:52:00,
2013-06-15 08:02:00,68.0,68.0,30.09,West,280,0.0,0.0,100,0.00,,,0.00,162.000000,,2013-06-15 13:02:00,
2013-06-15 08:11:00,69.0,69.0,30.09,WNW,296,0.0,1.0,100,0.00,,,0.00,169.000000,,2013-06-15 13:11:00,
2013-06-15 08:22:00,70.0,69.0,30.09,WNW,296,0.0,0.0,97,0.00,,,0.00,174.000000,,2013-06-15 13:22:00,
2013-06-15 08:32:00,72.0,69.0,30.09,North,360,0.0,2.0,90,0.00,,,0.00,176.000000,,2013-06-15 13:32:00,
2013-06-15 08:43:00,74.0,68.0,30.10,North,360,0.0,0.0,83,0.00,,,0.00,167.000000,,2013-06-15 13:43:00,
2013-06-15 08:53:00,75.0,69.0,30.10,North,360,0.0,0.0,81,0.00,,,0.00,162.000000,,2013-06-15 13:53:00,
2013-06-15 09:01:00,77.0,68.0,30.11,North,360,0.0,0.0,74,0.00,,,0.00,164.000000,,2013-06-15 14:01:00,
2013-06-15 09:12:00,78.0,67.0,30.11,North,360,0.0,0.0,69,0.00,,,0.00,162.000000,,2013-06-15 14:12:00,
2013-06-15 10:11:00,83.0,63.0,30.09,West,277,0.0,2.0,51,0.00,,,0.00,176.000000,,2013-06-15 15:11:00,
2013-06-15 10:22:00,82.0,65.0,30.09,SSW,208,0.0,3.0,56,0.00,,,0.00,185.000000,,2013-06-15 15:22:00,
2013-06-15 10:33:00,83.0,64.0,30.10,North,360,0.0,2.0,53,0.00,,,0.00,183.000000,,2013-06-15 15:33:00,
2013-06-15 10:43:00,85.0,65.0,30.10,NNW,329,0.0,3.0,51,0.00,,,0.00,179.000000,,2013-06-15 15:43:00,
2013-06-15 10:53:00,85.0,65.0,30.09,East,82,2.0,5.0,51,0.00,,,0.00,185.000000,,2013-06-15 15:53:00,
2013-06-15 11:01:00,83.0,67.0,30.08,ENE,64,1.0,6.0,58,0.00,,,0.00,192.000000,,2013-06-15 16:01:00,
2013-06-15 11:11:00,81.0,65.0,30.07,ENE,78,1.0,7.0,58,0.00,,,0.00,202.000000,,2013-06-15 16:11:00,
2013-06-15 11:22:00,82.0,65.0,30.07,ENE,61,1.0,5.0,56,0.00,,,0.00,202.000000,,2013-06-15 16:22:00,
2013-06-15 11:33:00,82.0,64.0,30.06,East,99,2.0,7.0,55,0.00,,,0.00,201.000000,,2013-06-15 16:33:00,
2013-06-15 11:43:00,82.0,63.0,30.06,NE,54,3.0,7.0,52,0.00,,,0.00,201.000000,,2013-06-15 16:43:00,
2013-06-15 11:53:00,82.0,65.0,30.06,East,85,5.0,11.0,56,0.00,,,0.00,206.000000,,2013-06-15 16:53:00,
2013-06-15 12:02:00,82.0,65.0,30.05,ESE,110,5.0,10.0,57,0.00,,,0.00,202.000000,,2013-06-15 17:02:00,
2013-06-15 12:12:00,82.0,64.0,30.05,East,90,5.0,9.0,55,0.00,,,0.00,202.000000,,2013-06-15 17:12:00,
2013-06-15 12:21:00,83.0,64.0,30.06,East,79,3.0,8.0,53,0.00,,,0.00,202.000000,,2013-06-15 17:21:00,
2013-06-15 12:32:00,83.0,64.0,30.06,East,95,3.0,8.0,52,0.00,,,0.00,202.000000,,2013-06-15 17:32:00,
2013-06-15 12:43:00,83.0,63.0,30.06,ESE,104,4.0,10.0,51,0.00,,,0.00,208.000000,,2013-06-15 17:43:00,
2013-06-15 12:52:00,83.0,62.0,30.06,East,95,4.0,10.0,50,0.00,,,0.00,208.000000,,2013-06-15 17:52:00,
2013-06-15 13:01:00,83.0,63.0,30.06,East,97,9.0,16.0,51,0.00,,,0.00,204.000000,,2013-06-15 18:01:00,
2013-06-15 13:12:00,84.0,64.0,30.06,ENE,69,3.0,10.0,51,0.00,,,0.00,206.000000,,2013-06-15 18:12:00,
2013-06-15 13:22:00,84.0,63.0,30.05,East,85,4.0,10.0,50,0.00,,,0.00,209.000000,,2013-06-15 18:22:00,
2013-06-15 13:32:00,85.0,63.0,30.05,ENE,78,3.0,8.0,48,0.00,,,0.00,199.000000,,2013-06-15 18:32:00,
2013-06-15 13:43:00,84.0,62.0,30.05,East,82,3.0,10.0,48,0.00,,,0.00,204.000000,,2013-06-15 18:43:00,
2013-06-15 13:53:00,85.0,65.0,30.04,East,80,0.0,11.0,51,0.00,,,0.00,202.000000,,2013-06-15 18:53:00,
2013-06-15 14:01:00,85.0,67.0,30.05,ESE,103,1.0,9.0,55,0.00,,,0.00,211.000000,,2013-06-15 19:01:00,
2013-06-15 14:11:00,85.0,67.0,30.05,SSW,203,1.0,8.0,55,0.00,,,0.00,206.000000,,2013-06-15 19:11:00,
2013-06-15 14:22:00,85.0,64.0,30.05,ESE,107,4.0,9.0,50,0.00,,,0.00,188.000000,,2013-06-15 19:22:00,
2013-06-15 14:33:00,85.0,64.0,30.05,SE,134,0.0,7.0,49,0.00,,,0.00,172.000000,,2013-06-15 19:33:00,
2013-06-15 14:43:00,85.0,65.0,30.05,ESE,102,1.0,3.0,52,0.00,,,0.00,213.000000,,2013-06-15 19:43:00,
2013-06-15 14:52:00,85.0,66.0,30.03,East,93,4.0,7.0,53,0.00,,,0.00,197.000000,,2013-06-15 19:52:00,
2013-06-15 15:02:00,85.0,66.0,30.03,ESE,102,1.0,8.0,54,0.00,,,0.00,204.000000,,2013-06-15 20:02:00,
2013-06-15 15:11:00,86.0,66.0,30.02,ESE,116,4.0,8.0,52,0.00,,,0.00,202.000000,,2013-06-15 20:11:00,
2013-06-15 15:22:00,86.0,67.0,30.02,ESE,117,2.0,7.0,53,0.00,,,0.00,201.000000,,2013-06-15 20:22:00,
2013-06-15 15:33:00,86.0,67.0,30.02,South,175,1.0,10.0,53,0.00,,,0.00,197.000000,,2013-06-15 20:33:00,
2013-06-15 15:43:00,86.0,67.0,30.02,ESE,102,2.0,8.0,54,0.00,,,0.00,188.000000,,2013-06-15 20:43:00,
2013-06-15 15:52:00,86.0,67.0,30.02,East,97,2.0,7.0,54,0.00,,,0.00,187.000000,,2013-06-15 20:52:00,
2013-06-15 16:01:00,86.0,69.0,30.02,East,88,2.0,10.0,58,0.00,,,0.00,192.000000,,2013-06-15 21:01:00,
2013-06-15 16:12:00,85.0,66.0,30.02,East,92,4.0,13.0,54,0.00,,,0.00,187.000000,,2013-06-15 21:12:00,
2013-06-15 16:22:00,85.0,66.0,30.03,East,93,5.0,13.0,54,0.00,,,0.00,199.000000,,2013-06-15 21:22:00,
2013-06-15 16:33:00,85.0,65.0,30.03,ENE,73,5.0,8.0,51,0.00,,,0.00,195.000000,,2013-06-15 21:33:00,
2013-06-15 16:42:00,85.0,64.0,30.03,ESE,123,4.0,12.0,49,0.00,,,0.00,195.000000,,2013-06-15 21:42:00,
2013-06-15 16:52:00,85.0,66.0,30.02,SE,126,4.0,10.0,53,0.00,,,0.00,167.000000,,2013-06-15 21:52:00,
2013-06-15 17:01:00,85.0,69.0,30.01,ESE,117,3.0,10.0,58,0.00,,,0.00,185.000000,,2013-06-15 22:01:00,
2013-06-15 17:11:00,85.0,68.0,30.01,East,79,3.0,8.0,56,0.00,,,0.00,135.000000,,2013-06-15 22:11:00,
2013-06-15 17:22:00,85.0,68.0,30.00,East,92,6.0,6.0,56,0.00,,,0.00,132.000000,,2013-06-15 22:22:00,
2013-06-15 17:32:00,84.0,68.0,30.00,East,89,1.0,7.0,58,0.00,,,0.00,130.000000,,2013-06-15 22:32:00,
2013-06-15 17:42:00,84.0,68.0,30.00,ESE,107,4.0,8.0,58,0.00,,,0.00,128.000000,,2013-06-15 22:42:00,
2013-06-15 17:53:00,84.0,68.0,29.99,ESE,120,3.0,6.0,59,0.00,,,0.00,130.000000,,2013-06-15 22:53:00,
2013-06-15 18:02:00,84.0,68.0,29.99,ESE,102,1.0,5.0,59,0.00,,,0.00,137.000000,,2013-06-15 23:02:00,
2013-06-15 18:11:00,84.0,68.0,30.00,ESE,117,1.0,5.0,59,0.00,,,0.00,125.000000,,2013-06-15 23:11:00,
2013-06-15 18:22:00,84.0,68.0,30.00,ESE,112,0.0,5.0,58,0.00,,,0.00,120.000000,,2013-06-15 23:22:00,
2013-06-15 18:33:00,84.0,69.0,30.01,ESE,117,2.0,5.0,60,0.00,,,0.00,158.000000,,2013-06-15 23:33:00,
2013-06-15 18:42:00,84.0,68.0,30.01,ESE,117,0.0,2.0,59,0.00,,,0.00,144.000000,,2013-06-15 23:42:00,
2013-06-15 18:53:00,84.0,73.0,30.02,ESE,117,0.0,1.0,69,0.00,,,0.00,60.000000,,2013-06-15 23:53:00,
2013-06-15 19:01:00,83.0,73.0,30.02,ESE,117,0.0,0.0,73,0.00,,,0.00,48.000000,,2013-06-16 00:01:00,
2013-06-15 19:11:00,82.0,72.0,30.02,ESE,117,0.0,0.0,73,0.00,,,0.00,42.000000,,2013-06-16 00:11:00,
2013-06-15 19:22:00,80.0,72.0,30.02,ESE,117,0.0,0.0,78,0.00,,,0.00,44.000000,,2013-06-16 00:22:00,
2013-06-15 19:33:00,79.0,72.0,30.03,ESE,117,0.0,0.0,79,0.00,,,0.00,40.000000,,2013-06-16 00:33:00,
2013-06-15 19:43:00,79.0,72.0,30.03,ESE,117,0.0,0.0,80,0.00,,,0.00,30.000000,,2013-06-16 00:43:00,
2013-06-15 19:52:00,78.0,72.0,30.02,ESE,117,0.0,0.0,83,0.00,,,0.00,21.000000,,2013-06-16 00:52:00,
2013-06-15 20:01:00,77.0,72.0,30.02,ESE,117,0.0,0.0,84,0.00,,,0.00,9.000000,,2013-06-16 01:01:00,
2013-06-15 20:11:00,76.0,72.0,30.01,ESE,117,0.0,0.0,86,0.00,,,0.00,0.000000,,2013-06-16 01:11:00,
2013-06-15 20:22:00,75.0,71.0,30.01,ESE,117,0.0,0.0,86,0.00,,,0.00,0.000000,,2013-06-16 01:22:00,
2013-06-15 20:33:00,75.0,71.0,30.00,ESE,117,0.0,0.0,88,0.00,,,0.00,0.000000,,2013-06-16 01:33:00,
2013-06-15 20:42:00,74.0,71.0,30.01,ESE,117,0.0,0.0,89,0.00,,,0.00,0.000000,,2013-06-16 01:42:00,
2013-06-15 20:53:00,73.0,70.0,30.01,ESE,117,0.0,0.0,90,0.00,,,0.00,0.000000,,2013-06-16 01:53:00,
2013-06-15 21:01:00,73.0,70.0,30.01,ESE,117,0.0,0.0,91,0.00,,,0.00,0.000000,,2013-06-16 02:01:00,
2013-06-15 21:12:00,72.0,69.0,30.01,ESE,117,0.0,0.0,91,0.00,,,0.00,0.000000,,2013-06-16 02:12:00,
2013-06-15 21:22:00,72.0,70.0,30.02,ESE,117,0.0,0.0,93,0.00,,,0.00,0.000000,,2013-06-16 02:22:00,
2013-06-15 21:33:00,71.0,69.0,30.02,ESE,117,0.0,0.0,94,0.00,,,0.00,0.000000,,2013-06-16 02:33:00,
2013-06-15 21:43:00,71.0,69.0,30.02,ESE,117,0.0,0.0,95,0.00,,,0.00,0.000000,,2013-06-16 02:43:00,
2013-06-15 21:53:00,70.0,69.0,30.02,ESE,117,0.0,0.0,96,0.00,,,0.00,0.000000,,2013-06-16 02:53:00,
2013-06-15 22:02:00,70.0,69.0,30.03,ESE,117,0.0,0.0,96,0.00,,,0.00,0.000000,,2013-06-16 03:02:00,
2013-06-15 22:12:00,70.0,69.0,30.03,ESE,117,0.0,0.0,97,0.00,,,0.00,0.000000,,2013-06-16 03:12:00,
2013-06-15 22:22:00,70.0,69.0,30.03,ESE,117,0.0,0.0,97,0.00,,,0.00,0.000000,,2013-06-16 03:22:00,
2013-06-15 22:33:00,69.0,68.0,30.03,ESE,117,0.0,0.0,97,0.00,,,0.00,0.000000,,2013-06-16 03:33:00,
2013-06-15 22:43:00,69.0,68.0,30.03,ESE,117,0.0,0.0,98,0.00,,,0.00,0.000000,,2013-06-16 03:43:00,
2013-06-15 22:53:00,69.0,68.0,30.03,ESE,117,0.0,0.0,98,0.00,,,0.00,0.000000,,2013-06-16 03:53:00,
2013-06-15 23:02:00,69.0,69.0,30.03,ESE,117,0.0,0.0,99,0.00,,,0.00,0.000000,,2013-06-16 04:02:00,
2013-06-15 23:12:00,68.0,68.0,30.03,ESE,117,0.0,0.0,99,0.00,,,0.00,0.000000,,2013-06-16 04:12:00,
2013-06-15 23:23:00,68.0,68.0,30.03,ESE,117,0.0,0.0,99,0.00,,,0.00,0.000000,,2013-06-16 04:23:00,
2013-06-15 23:33:00,68.0,68.0,30.03,ESE,117,0.0,0.0,99,0.00,,,0.00,0.000000,,2013-06-16 04:33:00,
2013-06-15 23:42:00,68.0,68.0,30.03,ESE,117,0.0,0.0,100,0.00,,,0.00,0.000000,,2013-06-16 04:42:00,
2013-06-15 23:53:00,68.0,68.0,30.03,ESE,117,0.0,0.0,100,0.00,,,0.00,0.000000,,2013-06-16 04:53:00,